Home > Weather > San Antonio > Past weeks

Flag for USA Past Weather in San Antonio, Texas, USA — Yesterday and Last 2 Weeks

Now
76 °F

Passing clouds.


Feels Like: 76 °F
Forecast: 77 / 91 °F
Wind: No wind

Location: San Antonio International Airport

Current Time: Jul 28, 2016 at 3:50:42 AM

Latest Report: Jul 28, 2016 at 2:51 AM


Visibility: 10 mi

Pressure: 29.93 "Hg

Humidity: 88%

Dew Point: 72 °F

Location of San AntonioLocation

Past Weather in San Antonio — Graph

°F

San Antonio Temperature Yesterday

Maximum temperature yesterday: 88 °F (at 2:02 PM)
Minimum temperature yesterday: 74 °F (at 2:51 PM)
Average temperature yesterday: 79 °F

High & Low Weather Summary for the Past Weeks

 TemperatureHumidityPressure
High99 °F (Jul 14, 4:51 PM)94% (Jul 26, 1:51 AM)30.15 "Hg (Jul 26, 1:51 AM)
Low73 °F (Jul 26, 1:51 AM)27% (Jul 15, 5:51 PM)29.80 "Hg (Jul 25, 6:51 PM)
Average85 °F65%29.97 "Hg
* Reported Jul 13 2:51 AM — Jul 28 2:51 AM, San Antonio, Weather by CustomWeather, © 2016

Note: Actual official high and low records may vary slightly from our data, if they occured in-between our weather recording intervals... More about our weather records

Advertising

San Antonio Weather History for the Previous 24 Hours

Scroll right to see more
 ConditionsComfort  
Time TempWeatherWind HumidityBarometerVisibility
2:51 AM
Thu, Jul 28
76 °FPassing clouds.No wind88%29.93 "Hg10 mi
12:51 AM77 °FPassing clouds.3 mph82%29.93 "Hg10 mi
11:51 PM
Wed, Jul 27
77 °FPassing clouds.6 mph85%29.93 "Hg10 mi
10:51 PM77 °FPassing clouds.No wind88%29.92 "Hg10 mi
9:51 PM76 °FPassing clouds.3 mph91%29.90 "Hg10 mi
8:51 PM77 °FPartly sunny.7 mph90%29.87 "Hg10 mi
7:51 PM80 °FPartly sunny.3 mph81%29.86 "Hg10 mi
6:51 PM79 °FPartly sunny.3 mph82%29.86 "Hg10 mi
5:51 PM76 °FLight rain. Cloudy.6 mph91%29.89 "Hg7 mi
4:51 PM75 °FLight rain. Mostly cloudy.7 mph90%29.92 "Hg7 mi
3:51 PM74 °FLight rain. More clouds than sun.6 mph91%29.93 "Hg8 mi
2:59 PM74 °FThunderstorms. Fog.5 mph88%30.02 "Hg2 mi
2:51 PM74 °FThunderstorms. More clouds than sun.6 mph88%29.98 "Hg2 mi
2:02 PM88 °FThundershowers. Scattered clouds.8 mph63%29.97 "Hg10 mi
1:51 PM87 °FScattered clouds.6 mph65%29.92 "Hg10 mi
12:51 PM86 °FBroken clouds.6 mph63%29.93 "Hg10 mi
11:51 AM87 °FBroken clouds.8 mph65%29.95 "Hg10 mi
10:51 AM82 °FCloudy.7 mph79%29.95 "Hg10 mi
9:51 AM81 °FPartly sunny.10 mph79%29.95 "Hg9 mi
8:51 AM79 °FOvercast.5 mph84%29.94 "Hg10 mi
7:51 AM78 °FOvercast.8 mph84%29.93 "Hg10 mi
6:51 AM78 °FOvercast.6 mph84%29.91 "Hg10 mi
5:51 AM77 °FOvercast.No wind85%29.89 "Hg10 mi
4:51 AM77 °FOvercast.No wind85%29.88 "Hg10 mi
3:51 AM76 °FOvercast.3 mph94%29.88 "Hg9 mi
Weather by CustomWeather, © 2016

See weather overviewHow to use our weather pages